Location: Observatory
(52.1446°N, 0.4624°W)
Time: 10:28:57
(UTC+01:00)

ISS - Pass Details

Date: 03 July 2020
Orbit: 417 x 420 km, 51.6° (Epoch: 02 July)

Event Time Altitude Azimuth Distance (km) Brightness Sun altitude
Exits shadow 03:09:19 13° 181° (S) 1,327 -1.8 -10.2°
Maximum altitude 03:11:05 18° 144° (SE) 1,092 -1.9 -10.1°
Drops below altitude 10° 03:13:28 10° 98° (E) 1,496 -0.7 -9.9°
Sets 03:15:59 0° 79° (E) 2,363 0.7 -9.7°
